星链-36943(STARLINK-36943)

导读

STARLINK-36943(NORAD编号68035)是SpaceX星链星座的第二代卫星。它运行在近地轨道,配备氩气离子推进系统,支持轨道机动与主动脱轨,采用太阳能供电与相控阵天线技术,为全球提供低延迟宽带互联网服务,属于星链卫星组网的一部分。 当前星链星座在轨活跃卫星已超万颗,为提升太空安全,SpaceX计划2026年内将包括该星在内的4400颗星链卫星轨道高度从550公里降至480公里,缩短故障卫星在轨滞留时间,降低碰撞和太空碎片风险,缓解近地轨道拥挤问题,避免凯斯勒效应。

基本信息
目录编号:
68035
目录名称:
STARLINK-36943
国际标识:
2026-040W
轨道中心:
EARTH
卫星名称:
星链-36943
卫星全名:
星链-36943(STARLINK-36943)
卫星状态:
在轨 (已飞行196 天)
发射日期:
2026-03-01 UTC
国别 :
美国 (US)
星等 :
--
该卫星已列入 空间交会检测服务 Space Conjunction Data Service (SCDS) ,当前飞行风险评估等级: 无高风险
轨道信息
数据来源 国际轨道数据
星历时间: 2026-09-13T03:33:20+0800
13小时前
查看轨道信息
半长轴: 6843.665km
偏心率: 0.0002008
轨道倾角: 97.286°
近地点辐角 93.895°
升交点赤经 203.319°
平近点角 266.253°
近地点: 464.153km
远地点: 466.903km
周期: 93.906分钟
每日圈数: 15.334502
详细信息
固有亮度:
5
最大亮度:
2.5
卫星平台:
Starlink V1.0
覆盖范围:
全球
运营商:
太空探索技术公司
运营商所在国:
美国
制造商(研发单位):
太空探索技术公司
制造商所在国:
美国
使用方式:
暂无
卫星简介
Starlink 计划是 SpaceX 推出的全球卫星互联网项目,通过发射低轨道卫星,为全球尤其是偏远地区提供高速、低延迟的互联网服务。自 2019 年起,Starlink 已部署数千颗卫星,旨在缩小全球数字鸿沟,推动互联网普及。该项目还为军事、航空等行业提供通信支持,带来广泛经济效益。
2D轨道图
3D轨道图
轨道高度分析图
轨道倾角分析图
轨道综合分析图
查看轨道综合分析图
交会数据列表
事件ID 空间交会对象 最接近时刻(TCA) 交会距离 交会风险概率(CRP) 交会风险指数(CRI) 操作
CDM_260912-233806-533806-803522
2026-09-12T
23:38:31+0000
2.789 km
极远距离
1.441707E-6 低风险 0.38
CDM_260907-013405-475206-803523
2026-09-07T
01:34:52+0000
2.570 km
极远距离
1.398542E-6 低风险 0.38
与全量物体交会距离演化趋势
与全量物体交会风险概率演化趋势